NKS3123 KEWR-KDTW

Flight info

Callsign NKS3123
Flight time N/A
Altitude 36000
Route GAYEL J95 CFB TRAAD JACCI FERRL2
Aircraft A320/M-SDE3FGHIRWY/LB1

Departure

Time 2026-05-06 16:03
Airport Newark Liberty International Airport (KEWR)

Arrival

Time N/A
Airport Detroit Metropolitan Wayne County Airport (KDTW)
Time Latitude Longitude Altitude Speed Heading
2026-05-06 16:03 40.85150 -74.25563 8483 ft 318 kts 345°
2026-05-06 16:03 40.87381 -74.25970 9273 ft 322 kts 345°
2026-05-06 16:03 40.89591 -74.26378 10012 ft 327 kts 344°
2026-05-06 16:03 40.91902 -74.26807 10378 ft 348 kts 344°
2026-05-06 16:04 40.94364 -74.27268 10545 ft 369 kts 345°
2026-05-06 16:04 40.96991 -74.27758 10689 ft 392 kts 345°
2026-05-06 16:04 40.99769 -74.28270 10830 ft 413 kts 346°
2026-05-06 16:04 41.02647 -74.28791 11271 ft 421 kts 346°
2026-05-06 16:05 41.05569 -74.29310 11884 ft 425 kts 346°
2026-05-06 16:05 41.08508 -74.29832 12500 ft 428 kts 346°
2026-05-06 16:05 41.11431 -74.30354 13104 ft 431 kts 345°
2026-05-06 16:05 41.14407 -74.30894 13689 ft 433 kts 345°
2026-05-06 16:06 41.17401 -74.31442 14211 ft 437 kts 345°
2026-05-06 16:06 41.20423 -74.31997 14732 ft 439 kts 345°
2026-05-06 16:06 41.23454 -74.32552 15285 ft 441 kts 345°
2026-05-06 16:06 41.26498 -74.33107 15852 ft 442 kts 345°
2026-05-06 16:07 41.29551 -74.33667 16414 ft 444 kts 344°
2026-05-06 16:07 41.32615 -74.34234 16971 ft 445 kts 344°
2026-05-06 16:07 41.35624 -74.35082 17466 ft 440 kts 334°
2026-05-06 16:07 41.38379 -74.36628 17944 ft 431 kts 323°
2026-05-06 16:08 41.40838 -74.38832 18419 ft 422 kts 312°
2026-05-06 16:08 41.42905 -74.41545 18877 ft 414 kts 302°
2026-05-06 16:08 41.44541 -74.44649 19358 ft 406 kts 292°
2026-05-06 16:08 41.45946 -74.47921 19846 ft 407 kts 292°
2026-05-06 16:09 41.47358 -74.51204 20328 ft 409 kts 292°
2026-05-06 16:09 41.48783 -74.54494 20770 ft 411 kts 293°
2026-05-06 16:09 41.50220 -74.57799 21197 ft 413 kts 293°
2026-05-06 16:09 41.51662 -74.61116 21596 ft 415 kts 293°
2026-05-06 16:10 41.53087 -74.64411 22015 ft 416 kts 293°
2026-05-06 16:10 41.54530 -74.67768 22410 ft 417 kts 293°
2026-05-06 16:10 41.55973 -74.71134 22799 ft 419 kts 293°
2026-05-06 16:10 41.57426 -74.74523 23205 ft 421 kts 293°
2026-05-06 16:11 41.58881 -74.77917 23577 ft 422 kts 294°
2026-05-06 16:11 41.60342 -74.81326 23906 ft 424 kts 293°
2026-05-06 16:11 41.61811 -74.84755 24165 ft 427 kts 293°
2026-05-06 16:11 41.63292 -74.88213 24450 ft 429 kts 293°
2026-05-06 16:12 41.64774 -74.91681 24756 ft 431 kts 293°
2026-05-06 16:12 41.66238 -74.95116 25184 ft 429 kts 293°
2026-05-06 16:12 41.67711 -74.98577 25643 ft 428 kts 293°
2026-05-06 16:12 41.69180 -75.02031 26074 ft 426 kts 294°
2026-05-06 16:13 41.70642 -75.05469 26546 ft 424 kts 294°
2026-05-06 16:13 41.72097 -75.08899 27061 ft 422 kts 293°
2026-05-06 16:13 41.73541 -75.12301 27614 ft 419 kts 293°
2026-05-06 16:13 41.74978 -75.15686 28157 ft 417 kts 293°
2026-05-06 16:14 41.76406 -75.19051 28688 ft 414 kts 293°
2026-05-06 16:14 41.77804 -75.22355 29186 ft 413 kts 293°
2026-05-06 16:14 41.79211 -75.25691 29683 ft 411 kts 293°
2026-05-06 16:14 41.80614 -75.29020 30136 ft 409 kts 293°
2026-05-06 16:15 41.82010 -75.32336 30613 ft 407 kts 292°
2026-05-06 16:15 41.83391 -75.35620 31108 ft 403 kts 292°
2026-05-06 16:15 41.84761 -75.38880 31653 ft 399 kts 292°
2026-05-06 16:15 41.86118 -75.42109 32232 ft 395 kts 292°
2026-05-06 16:16 41.87006 -75.44222 32655 ft 391 kts 291°
2026-05-06 16:16 41.88332 -75.47374 33341 ft 384 kts 291°
2026-05-06 16:16 41.90051 -75.51469 34144 ft 377 kts 292°
2026-05-06 16:16 41.91327 -75.54520 34644 ft 372 kts 291°
2026-05-06 16:17 41.92583 -75.57536 35105 ft 368 kts 291°
2026-05-06 16:17 41.93827 -75.60532 35506 ft 366 kts 291°
2026-05-06 16:17 41.95065 -75.63513 35743 ft 365 kts 291°
2026-05-06 16:17 41.96305 -75.66503 35792 ft 369 kts 291°
2026-05-06 16:18 41.98399 -75.71562 35798 ft 375 kts 291°
2026-05-06 16:18 42.01358 -75.78694 35824 ft 376 kts 291°
2026-05-06 16:19 42.03902 -75.84835 35791 ft 375 kts 291°
2026-05-06 16:19 42.06009 -75.89930 35791 ft 375 kts 291°
2026-05-06 16:20 42.08543 -75.96060 35796 ft 375 kts 291°
2026-05-06 16:20 42.11069 -76.02210 35798 ft 375 kts 291°
2026-05-06 16:21 42.13570 -76.08312 35807 ft 375 kts 291°
2026-05-06 16:21 42.15689 -76.14631 35840 ft 364 kts 279°
2026-05-06 16:22 42.16338 -76.21329 35824 ft 361 kts 272°
2026-05-06 16:22 42.16858 -76.28066 35828 ft 361 kts 272°
2026-05-06 16:23 42.17386 -76.34808 35829 ft 362 kts 272°
2026-05-06 16:23 42.17898 -76.41507 35838 ft 362 kts 272°
2026-05-06 16:24 42.18408 -76.48268 35838 ft 362 kts 272°
2026-05-06 16:24 42.18915 -76.55015 35875 ft 362 kts 272°
2026-05-06 16:25 42.19410 -76.61716 35857 ft 361 kts 272°
2026-05-06 16:25 42.19903 -76.68448 35868 ft 361 kts 272°
2026-05-06 16:26 42.20397 -76.75187 35865 ft 361 kts 272°
2026-05-06 16:26 42.20883 -76.81926 35869 ft 361 kts 272°
2026-05-06 16:27 42.21368 -76.88656 35883 ft 360 kts 272°
2026-05-06 16:27 42.21842 -76.95301 35872 ft 357 kts 272°
2026-05-06 16:28 42.22314 -77.01969 35872 ft 357 kts 272°
2026-05-06 16:28 42.22780 -77.08638 35875 ft 357 kts 272°
2026-05-06 16:29 42.23247 -77.15321 35869 ft 358 kts 272°
2026-05-06 16:29 42.23707 -77.21957 35871 ft 358 kts 272°
2026-05-06 16:30 42.24084 -77.27562 35911 ft 358 kts 272°
2026-05-06 16:30 42.24606 -77.35323 35894 ft 357 kts 272°
2026-05-06 16:31 42.25054 -77.41996 35891 ft 357 kts 272°
2026-05-06 16:31 42.25495 -77.48667 35881 ft 357 kts 272°
2026-05-06 16:32 42.26293 -77.55243 35880 ft 360 kts 278°
2026-05-06 16:32 42.27494 -77.61808 35912 ft 360 kts 278°
2026-05-06 16:33 42.28680 -77.68367 35905 ft 359 kts 278°
2026-05-06 16:34 42.30435 -77.78159 35900 ft 359 kts 278°
2026-05-06 16:34 42.31602 -77.84712 35890 ft 359 kts 278°
2026-05-06 16:35 42.32771 -77.91265 35888 ft 359 kts 278°
2026-05-06 16:35 42.34126 -77.98886 35900 ft 359 kts 278°
2026-05-06 16:36 42.35098 -78.04384 35892 ft 359 kts 278°
2026-05-06 16:36 42.36246 -78.10914 35890 ft 360 kts 278°
2026-05-06 16:37 42.37408 -78.17494 35887 ft 359 kts 278°
2026-05-06 16:37 42.38560 -78.24072 35886 ft 360 kts 278°
2026-05-06 16:38 42.39714 -78.30663 35884 ft 360 kts 278°
2026-05-06 16:38 42.40856 -78.37257 35884 ft 360 kts 278°
2026-05-06 16:39 42.41986 -78.43820 35887 ft 361 kts 278°
2026-05-06 16:39 42.43126 -78.50430 35887 ft 360 kts 278°
2026-05-06 16:40 42.44261 -78.57040 35884 ft 360 kts 278°
2026-05-06 16:40 42.45393 -78.63647 35894 ft 360 kts 278°
2026-05-06 16:41 42.46519 -78.70225 35932 ft 362 kts 278°
2026-05-06 16:41 42.47123 -78.76876 35865 ft 353 kts 269°
2026-05-06 16:42 42.47339 -78.83529 35845 ft 353 kts 270°
2026-05-06 16:42 42.47556 -78.90166 35870 ft 352 kts 270°
2026-05-06 16:43 42.47778 -78.96792 35895 ft 352 kts 270°
2026-05-06 16:43 42.47990 -79.03359 35906 ft 351 kts 270°
2026-05-06 16:44 42.48196 -79.09960 35934 ft 351 kts 269°
2026-05-06 16:44 42.48402 -79.16565 35937 ft 351 kts 269°
2026-05-06 16:45 42.48605 -79.23153 35929 ft 350 kts 269°
2026-05-06 16:45 42.48797 -79.29699 35924 ft 350 kts 269°
2026-05-06 16:46 42.48987 -79.36284 35920 ft 350 kts 269°
2026-05-06 16:46 42.49170 -79.42862 35944 ft 350 kts 269°
2026-05-06 16:47 42.49351 -79.49453 35926 ft 350 kts 269°
2026-05-06 16:47 42.49534 -79.56052 35913 ft 351 kts 269°
2026-05-06 16:48 42.49713 -79.62620 35911 ft 351 kts 269°
2026-05-06 16:48 42.49889 -79.69238 35908 ft 351 kts 269°
2026-05-06 16:49 42.50053 -79.75855 35916 ft 351 kts 269°
2026-05-06 16:49 42.50212 -79.82474 35939 ft 352 kts 269°